User: anonymous   Login
Location: Unspecified
(0.0000°N, 0.0000°E)
Time: 07:56:48
(UTC+00:00)
Language:

Galileo 5 - Orbit

View from above orbital plane
View from above orbital plane
View from above satellite
View from above satellite

Ground track
Ground track

The orbit data is extracted from the following two-line orbital elements,

1 40128U 14050A   17143.26593797 -.00000083 +00000-0 +00000-0 0  9991
2 40128 050.2941 046.2126 1623070 062.6476 312.9219 01.85518167016904
Epoch (UTC): 23 May 2017 06:22:57
Eccentricity: 0.1623070
inclination: 50.2941°
perigee height: 17058 km
apogee height: 26140 km
right ascension of ascending node: 46.2126°
argument of perigee: 62.6476°
revolutions per day: 1.85518167
mean anomaly at epoch: 312.9219°
orbit number at epoch: 1690

The dashed part of the orbit path shows where the satellite is in the earth's shadow,  

DLR